| time (UTC) | temp C | wind direction | speed KPH | gust KPH | rain 1hr cm | rain 24hr cm | rain mn cm | humidity % | barometer mb |
| 20260906200029 | 12 | 96 | 0.0 | 0.0 | 0.03 | 0.33 | 0.33 | 87 | 1016.2 |
| 20260906194521 | 12 | 96 | 0.0 | 0.0 | 0.05 | 0.33 | 0.33 | 90 | 1016.2 |
| 20260906193020 | 12 | 96 | 0.0 | 0.0 | 0.08 | 0.33 | 0.33 | 91 | 1016.3 |
| 20260906191618 | 11 | 109 | 0.0 | 4.8 | 0.10 | 0.33 | 0.33 | 91 | 1016.2 |
| 20260906190017 | 11 | 117 | 1.6 | 4.8 | 0.15 | 0.30 | 0.30 | 90 | 1016.3 |
| 20260906184516 | 11 | 111 | 0.0 | 3.2 | 0.23 | 0.41 | 0.28 | 89 | 1016.5 |
| 20260906183038 | 11 | 72 | 0.0 | 3.2 | 0.25 | 0.38 | 0.25 | 89 | 1016.7 |
| 20260906181518 | 11 | 57 | 0.0 | 3.2 | 0.23 | 0.36 | 0.23 | 89 | 1016.8 |
| 20260906180019 | 11 | 104 | 0.0 | 1.6 | 0.15 | 0.28 | 0.15 | 88 | 1016.7 |
| 20260906174513 | 11 | 100 | 0.0 | 3.2 | 0.05 | 0.28 | 0.05 | 86 | 1016.6 |
| 20260906173113 | 11 | 89 | 0.0 | 1.6 | 0.00 | 0.23 | 0.00 | 83 | 1016.7 |
| 20260906171519 | 11 | 77 | 0.0 | 1.6 | 0.00 | 0.23 | 0.00 | 84 | 1016.8 |
| 20260906170013 | 11 | 84 | 0.0 | 1.6 | 0.00 | 0.23 | 0.00 | 82 | 1016.7 |
| 20260906164513 | 11 | 79 | 0.0 | 4.8 | 0.00 | 0.23 | 0.00 | 80 | 1016.8 |
| 20260906163012 | 11 | 115 | 0.0 | 3.2 | 0.00 | 0.23 | 0.00 | 78 | 1016.7 |
| 20260906161508 | 11 | 104 | 0.0 | 1.6 | 0.00 | 0.23 | 0.00 | 77 | 1016.8 |
| 20260906160006 | 11 | 60 | 0.0 | 0.0 | 0.00 | 0.23 | 0.00 | 79 | 1016.9 |
| 20260906154606 | 11 | 79 | 0.0 | 3.2 | 0.00 | 0.23 | 0.00 | 75 | 1016.9 |
| 20260906153005 | 11 | 175 | 0.0 | 1.6 | 0.00 | 0.23 | 0.00 | 78 | 1016.7 |
| 20260906151514 | 11 | 169 | 0.0 | 0.0 | 0.00 | 0.23 | 0.00 | 78 | 1016.5 |
| 20260906150006 | 11 | 169 | 0.0 | 0.0 | 0.00 | 0.23 | 0.00 | 77 | 1016.5 |
| 20260906144505 | 10 | 169 | 0.0 | 1.6 | 0.00 | 0.41 | 0.00 | 77 | 1016.2 |
| 20260906143003 | 10 | 148 | 0.0 | 1.6 | 0.00 | 0.41 | 0.00 | 77 | 1016.0 |
| 20260906141502 | 10 | 104 | 0.0 | 0.0 | 0.00 | 0.41 | 0.00 | 77 | 1016.1 |
| 20260906134605 | 11 | 102 | 0.0 | 4.8 | 0.00 | 0.48 | 0.00 | 76 | 1015.8 |
| 20260906133107 | 10 | 112 | 1.6 | 6.4 | 0.00 | 0.48 | 0.00 | 77 | 1015.7 |
| 20260906131600 | 10 | 146 | 0.0 | 4.8 | 0.00 | 0.48 | 0.00 | 80 | 1015.7 |
| 20260906130106 | 10 | 136 | 0.0 | 1.6 | 0.00 | 0.48 | 0.00 | 83 | 1016.0 |
| 20260906124554 | 8 | 89 | 0.0 | 0.0 | 0.00 | 0.48 | 0.00 | 88 | 1016.2 |
| 20260906123054 | 8 | 89 | 0.0 | 0.0 | 0.00 | 0.48 | 0.00 | 88 | 1016.2 |
| 20260906121557 | 8 | 89 | 0.0 | 0.0 | 0.00 | 0.48 | 0.00 | 88 | 1016.2 |
| 20260906120052 | 8 | 89 | 0.0 | 0.0 | 0.00 | 0.48 | 0.00 | 88 | 1016.2 |
| 20260906114558 | 7 | 89 | 0.0 | 1.6 | 0.00 | 0.48 | 0.00 | 87 | 1016.4 |
| 20260906113056 | 8 | 92 | 0.0 | 0.0 | 0.00 | 0.48 | 0.00 | 88 | 1016.3 |
| 20260906111549 | 7 | 91 | 0.0 | 0.0 | 0.00 | 0.48 | 0.00 | 88 | 1016.3 |
| 20260906110047 | 8 | 92 | 0.0 | 1.6 | 0.00 | 0.48 | 0.00 | 88 | 1016.3 |
| 20260906104545 | 8 | 92 | 0.0 | 1.6 | 0.00 | 0.51 | 0.00 | 87 | 1016.3 |
| 20260906103043 | 8 | 72 | 0.0 | 3.2 | 0.00 | 0.51 | 0.00 | 86 | 1016.3 |
| 20260906101540 | 8 | 98 | 0.0 | 1.6 | 0.00 | 0.51 | 0.00 | 86 | 1016.4 |
| 20260906100038 | 8 | 97 | 0.0 | 1.6 | 0.00 | 0.51 | 0.00 | 85 | 1016.7 |
| 20260906094536 | 9 | 100 | 0.0 | 4.8 | 0.00 | 0.51 | 0.00 | 85 | 1016.7 |
| 20260906093037 | 9 | 94 | 0.0 | 1.6 | 0.00 | 0.51 | 0.00 | 85 | 1016.7 |
| 20260906091535 | 9 | 96 | 0.0 | 1.6 | 0.00 | 0.51 | 0.00 | 85 | 1016.7 |
| 20260906090031 | 10 | 89 | 0.0 | 1.6 | 0.00 | 0.51 | 0.00 | 84 | 1016.6 |
| 20260906084532 | 10 | 89 | 0.0 | 1.6 | 0.00 | 0.51 | 0.00 | 83 | 1016.8 |
| 20260906083028 | 10 | 89 | 0.0 | 3.2 | 0.00 | 0.51 | 0.00 | 81 | 1016.8 |
| 20260906081540 | 11 | 105 | 0.0 | 4.8 | 0.00 | 0.51 | 0.00 | 80 | 1016.8 |
| 20260906080031 | 11 | 111 | 0.0 | 3.2 | 0.00 | 0.51 | 0.00 | 80 | 1016.8 |
| 20260906074525 | 11 | 110 | 0.0 | 4.8 | 0.00 | 0.51 | 0.00 | 81 | 1016.7 |
| 20260906073023 | 10 | 113 | 0.0 | 3.2 | 0.00 | 0.51 | 0.00 | 85 | 1016.9 |
| 20260906071522 | 10 | 103 | 0.0 | 3.2 | 0.00 | 0.51 | 0.00 | 86 | 1016.8 |
| 20260906070018 | 10 | 109 | 0.0 | 0.0 | 0.00 | 0.51 | 0.00 | 83 | 1016.9 |
| 20260906064517 | 11 | 108 | 0.0 | 3.2 | 0.00 | 0.51 | 0.51 | 83 | 1016.8 |
| 20260906063017 | 10 | 78 | 0.0 | 0.0 | 0.00 | 0.51 | 0.51 | 88 | 1016.9 |
| 20260906061515 | 10 | 78 | 0.0 | 0.0 | 0.00 | 0.51 | 0.51 | 86 | 1017.0 |
| 20260906060024 | 10 | 78 | 0.0 | 1.6 | 0.00 | 0.51 | 0.51 | 85 | 1017.0 |
| 20260906054513 | 10 | 78 | 0.0 | 1.6 | 0.00 | 0.51 | 0.51 | 84 | 1017.1 |
| 20260906053020 | 11 | 78 | 0.0 | 1.6 | 0.00 | 0.51 | 0.51 | 83 | 1017.2 |
| 20260906051515 | 12 | 94 | 0.0 | 0.0 | 0.00 | 0.51 | 0.51 | 81 | 1017.2 |
| 20260906050029 | 12 | 94 | 0.0 | 1.6 | 0.00 | 0.51 | 0.51 | 79 | 1017.2 |
| 20260906044520 | 13 | 109 | 0.0 | 4.8 | 0.00 | 0.51 | 0.51 | 76 | 1017.2 |
| 20260906043013 | 13 | 91 | 0.0 | 3.2 | 0.00 | 0.51 | 0.51 | 74 | 1017.2 |
| 20260906041514 | 13 | 102 | 0.0 | 1.6 | 0.00 | 0.51 | 0.51 | 74 | 1017.2 |
| 20260906040013 | 13 | 148 | 0.0 | 0.0 | 0.00 | 0.51 | 0.51 | 73 | 1017.1 |
| 20260906034510 | 13 | 148 | 0.0 | 0.0 | 0.00 | 0.51 | 0.51 | 71 | 1016.9 |
| 20260906033024 | 14 | 149 | 0.0 | 0.0 | 0.00 | 0.51 | 0.51 | 71 | 1016.6 |
| 20260906031513 | 15 | 186 | 0.0 | 0.0 | 0.00 | 0.51 | 0.51 | 69 | 1016.5 |
| 20260906030012 | 15 | 186 | 0.0 | 0.0 | 0.00 | 0.51 | 0.51 | 66 | 1016.5 |
| 20260906024507 | 16 | 186 | 0.0 | 0.0 | 0.00 | 0.51 | 0.51 | 63 | 1016.4 |
| 20260906023007 | 17 | 186 | 0.0 | 1.6 | 0.00 | 0.51 | 0.51 | 59 | 1016.4 |
| 20260906021507 | 17 | 191 | 0.0 | 3.2 | 0.00 | 0.51 | 0.51 | 56 | 1016.2 |
| 20260906020006 | 18 | 174 | 0.0 | 6.4 | 0.00 | 0.51 | 0.51 | 53 | 1016.2 |
| 20260906014504 | 19 | 110 | 0.0 | 3.2 | 0.00 | 0.51 | 0.51 | 51 | 1016.3 |
| 20260906013008 | 20 | 114 | 0.0 | 4.8 | 0.00 | 0.51 | 0.51 | 50 | 1016.5 |
| 20260906011502 | 20 | 86 | 0.0 | 3.2 | 0.00 | 0.51 | 0.51 | 49 | 1016.4 |
| 20260906010001 | 20 | 101 | 1.6 | 6.4 | 0.00 | 0.51 | 0.51 | 49 | 1016.5 |
| 20260906004600 | 20 | 113 | 3.2 | 6.4 | 0.00 | 0.51 | 0.51 | 49 | 1016.5 |
| 20260906003058 | 20 | 107 | 1.6 | 8.0 | 0.00 | 0.51 | 0.51 | 49 | 1016.5 |
| 20260906001557 | 20 | 155 | 1.6 | 3.2 | 0.00 | 0.51 | 0.51 | 50 | 1016.4 |
| 20260906000056 | 20 | 108 | 3.2 | 9.7 | 0.00 | 0.51 | 0.51 | 50 | 1016.6 |
| 20260905234556 | 19 | 101 | 3.2 | 9.7 | 0.00 | 0.51 | 0.51 | 51 | 1016.8 |
| 20260905233052 | 19 | 70 | 4.8 | 11.3 | 0.00 | 0.51 | 0.51 | 52 | 1016.9 |
| 20260905231550 | 18 | 114 | 4.8 | 9.7 | 0.00 | 0.51 | 0.51 | 53 | 1017.0 |
| 20260905230053 | 18 | 115 | 1.6 | 12.9 | 0.00 | 0.51 | 0.51 | 54 | 1017.0 |
| 20260905224601 | 18 | 81 | 4.8 | 11.3 | 0.00 | 0.51 | 0.51 | 57 | 1017.2 |
| 20260905223044 | 17 | 117 | 6.4 | 12.9 | 0.00 | 0.51 | 0.51 | 58 | 1017.2 |
| 20260905221555 | 17 | 129 | 3.2 | 12.9 | 0.00 | 0.51 | 0.51 | 61 | 1017.4 |
| 20260905220041 | 17 | 102 | 4.8 | 11.3 | 0.00 | 0.51 | 0.51 | 64 | 1017.5 |
| 20260905214536 | 16 | 90 | 4.8 | 16.1 | 0.00 | 0.51 | 0.51 | 65 | 1017.7 |
| 20260905213034 | 16 | 103 | 3.2 | 12.9 | 0.00 | 0.51 | 0.51 | 68 | 1017.8 |
| 20260905211534 | 16 | 105 | 1.6 | 8.0 | 0.00 | 0.51 | 0.51 | 67 | 1018.1 |
| 20260905210033 | 16 | 113 | 3.2 | 12.9 | 0.00 | 0.51 | 0.51 | 65 | 1018.2 |
| 20260905204532 | 16 | 172 | 1.6 | 11.3 | 0.00 | 0.51 | 0.51 | 66 | 1018.2 |
| 20260905203033 | 16 | 260 | 1.6 | 12.9 | 0.00 | 0.51 | 0.51 | 70 | 1018.3 |
| 20260905201524 | 15 | 208 | 3.2 | 12.9 | 0.00 | 0.51 | 0.51 | 75 | 1018.4 |